Ukiah, CA

7:29 PM PST on February 19, 2017 (GMT -0800)
Ukiah Municipal

Weather History for KUKI - February, 2012

Change the Weather History Date:

Friday, February 24, 2012

  Actual Average Record
Temperature  
Mean Temperature 56 °F 50 °F  
Max Temperature 76 °F 61 °F 82 °F (1947)
Min Temperature 36 °F 39 °F 23 °F (1920)
Degree Days  
Heating Degree Days 9 15  
Month to date heating degree days 356 348  
Since 1 July heating degree days 2124 2148  
Cooling Degree Days 0 0  
Month to date cooling degree days 0 0  
Year to date cooling degree days 0 0  
Growing Degree Days 5 (Base 50)    
Moisture  
Dew Point 38 °F    
Average Humidity 59    
Maximum Humidity 92    
Minimum Humidity 25    
Precipitation  
Precipitation T in 0.26 in 4.65 in (1958)
Month to date precipitation 1.29 5.03  
Year to date precipitation 6.94 12.04  
Since 1 July precipitation 13.66  
Snow  
Snow 0.00 in - - ()
Month to date snowfall 0.0  
Since 1 July snowfall 0.0  
Snow Depth 0.00 in    
Sea Level Pressure  
Sea Level Pressure 30.11 in    
Wind  
Wind Speed 3 mph (NNW)    
Max Wind Speed 10 mph    
Max Gust Speed 20 mph    
Visibility 10 miles    
Events Rain    
T = Trace of Precipitation, MM = Missing Value Source: NWS Daily Summary

Daily Weather History Graph

Daily Weather History Graph

Search for Another Location

Airport or City:

Trip Planner

Search our weather history database for the weather conditions in past years. The results will help you decide how hot, cold, wet, or windy it might be!

Date:

Astronomy

Feb. 24, 2012 Rise Set
Actual Time 6:53 AM PST 5:59 PM PST
Civil Twilight 6:26 AM PST 6:26 PM PST
Nautical Twilight 5:55 AM PST 6:57 PM PST
Astronomical Twilight 5:24 AM PST 7:28 PM PST
Moon 7:52 AM PST (2/24) 9:06 PM PST (2/24)
Length of Visible Light 12h 00m
Length of Day
11h 06m
Waxing Crescent, 8% of the Moon is Illuminated
Feb 24
Waxing Crescent
Feb 29
First Quarter
Mar 8
Full
Mar 14
Last Quarter
Mar 22
New

Hourly Weather History & Observations

Time (PST) Temp. Dew Point Humidity Pressure Visibility Wind Dir Wind Speed Gust Speed Precip Events Conditions
12:56 AM 42.1 °F 39.0 °F 89% 30.07 in 10.0 mi Calm Calm - N/A   Clear
1:56 AM 43.0 °F 37.9 °F 82% 30.06 in 10.0 mi Calm Calm - N/A   Clear
2:56 AM 41.0 °F 37.0 °F 86% 30.07 in 10.0 mi Calm Calm - N/A   Clear
3:56 AM 39.9 °F 37.0 °F 89% 30.06 in 10.0 mi Calm Calm - N/A   Clear
4:56 AM 37.0 °F 35.1 °F 93% 30.06 in 10.0 mi Calm Calm - N/A   Clear
5:56 AM 37.0 °F 35.1 °F 93% 30.07 in 10.0 mi Calm Calm - N/A   Clear
6:56 AM 39.0 °F 35.1 °F 86% 30.07 in 10.0 mi Calm Calm - N/A   Clear
7:56 AM 42.1 °F 37.9 °F 85% 30.09 in 10.0 mi Calm Calm - N/A   Clear
8:56 AM 48.0 °F 39.0 °F 71% 30.10 in 10.0 mi Calm Calm - N/A   Clear
9:56 AM 55.0 °F 39.0 °F 55% 30.09 in 10.0 mi NNE 3.5 mph - N/A   Clear
10:56 AM 61.0 °F 37.9 °F 42% 30.08 in 10.0 mi ENE 3.5 mph - N/A   Clear
11:56 AM 66.0 °F 37.0 °F 34% 30.07 in 10.0 mi Calm Calm - N/A   Clear
12:56 PM 71.1 °F 39.0 °F 31% 30.04 in 10.0 mi Calm Calm - N/A   Clear
1:56 PM 73.9 °F 37.9 °F 27% 30.01 in 10.0 mi Calm Calm - N/A   Clear
2:56 PM 73.0 °F 37.9 °F 28% 30.03 in 10.0 mi WNW 6.9 mph - N/A   Clear
3:56 PM 70.0 °F 32.0 °F 25% 30.04 in 10.0 mi NW 10.4 mph 17.3 mph N/A   Clear
4:56 PM 61.0 °F 36.0 °F 39% 30.09 in 10.0 mi Variable 4.6 mph - N/A   Clear
5:56 PM 54.0 °F 37.9 °F 55% 30.13 in 10.0 mi NNW 10.4 mph 18.4 mph N/A   Clear
6:56 PM 51.1 °F 35.1 °F 54% 30.16 in 10.0 mi NW 9.2 mph - N/A   Clear
7:56 PM 51.1 °F 37.9 °F 61% 30.18 in 10.0 mi NW 8.1 mph 19.6 mph N/A   Overcast
8:16 PM 50.0 °F 39.2 °F 66% 30.19 in 10.0 mi WNW 6.9 mph - N/A   Overcast
8:56 PM 48.0 °F 43.0 °F 83% 30.20 in 10.0 mi North 6.9 mph - 0.00 in   Overcast
9:56 PM 48.0 °F 44.1 °F 86% 30.21 in 10.0 mi NNW 6.9 mph - N/A   Overcast
10:27 PM 48.2 °F 44.6 °F 87% 30.22 in 10.0 mi North 4.6 mph - 0.00 in   Overcast
10:56 PM 48.9 °F 43.0 °F 80% 30.22 in 10.0 mi NW 10.4 mph - 0.00 in Rain Light Rain
11:56 PM 46.9 °F 37.9 °F 71% 30.24 in 10.0 mi NW 11.5 mph 19.6 mph 0.00 in   Mostly Cloudy